N973SE ENBR-ENZV

Flight info

Callsign N973SE
Flight time 0h 48m
Altitude 15000
Route BEGOD
Aircraft C414/L-SBDFGRY/S

Departure

Time 2026-04-25 07:50
Airport Bergen Airport, Flesland (ENBR)

Arrival

Time 2026-04-25 08:39
Airport Stavanger Airport, Sola (ENZV)
Time Latitude Longitude Altitude Speed Heading
2026-04-25 07:26 60.29961 5.22673 165 ft 0 kts 285°
2026-04-25 07:43 60.29961 5.22671 138 ft 1 kts 269°
2026-04-25 07:43 60.29943 5.22659 165 ft 6 kts 167°
2026-04-25 07:44 60.29875 5.22666 164 ft 13 kts 212°
2026-04-25 07:44 60.29787 5.22527 164 ft 19 kts 236°
2026-04-25 07:44 60.29744 5.22268 163 ft 19 kts 260°
2026-04-25 07:44 60.29718 5.22043 163 ft 15 kts 226°
2026-04-25 07:45 60.29620 5.22044 162 ft 17 kts 169°
2026-04-25 07:45 60.29463 5.22095 161 ft 29 kts 171°
2026-04-25 07:45 60.29248 5.22175 159 ft 32 kts 169°
2026-04-25 07:45 60.29036 5.22237 157 ft 30 kts 172°
2026-04-25 07:46 60.28838 5.22315 156 ft 28 kts 168°
2026-04-25 07:46 60.28652 5.22379 154 ft 26 kts 169°
2026-04-25 07:46 60.28475 5.22427 153 ft 25 kts 175°
2026-04-25 07:46 60.28363 5.22465 152 ft 24 kts 171°
2026-04-25 07:47 60.28285 5.22418 151 ft 10 kts 257°
2026-04-25 07:47 60.28281 5.22352 151 ft 0 kts 261°
2026-04-25 07:48 60.28280 5.22351 151 ft 1 kts 261°
2026-04-25 07:49 60.28283 5.22258 151 ft 11 kts 278°
2026-04-25 07:49 60.28309 5.22165 152 ft 6 kts 341°
2026-04-25 07:49 60.28356 5.22149 152 ft 23 kts 350°
2026-04-25 07:49 60.28713 5.22029 156 ft 77 kts 353°
2026-04-25 07:50 60.29270 5.21890 414 ft 83 kts 346°
2026-04-25 07:50 60.29897 5.21742 608 ft 107 kts 349°
2026-04-25 07:50 60.30691 5.21598 1069 ft 111 kts 351°
2026-04-25 07:50 60.31416 5.21384 1760 ft 101 kts 346°
2026-04-25 07:51 60.32078 5.21066 2263 ft 96 kts 344°
2026-04-25 07:51 60.32713 5.20677 2698 ft 94 kts 343°
2026-04-25 07:51 60.33353 5.20395 3121 ft 94 kts 351°
2026-04-25 07:51 60.34002 5.20215 3547 ft 95 kts 350°
2026-04-25 07:52 60.34656 5.20002 3957 ft 95 kts 350°
2026-04-25 07:52 60.35311 5.19781 4390 ft 96 kts 350°
2026-04-25 07:52 60.35970 5.19564 4790 ft 96 kts 350°
2026-04-25 07:52 60.36630 5.19342 5176 ft 96 kts 349°
2026-04-25 07:53 60.37295 5.19117 5591 ft 97 kts 349°
2026-04-25 07:53 60.37954 5.18898 6010 ft 97 kts 348°
2026-04-25 07:53 60.38623 5.18671 6408 ft 98 kts 348°
2026-04-25 07:53 60.39295 5.18444 6796 ft 98 kts 347°
2026-04-25 07:54 60.39966 5.18217 7177 ft 98 kts 347°
2026-04-25 07:54 60.40635 5.17989 7568 ft 97 kts 346°
2026-04-25 07:54 60.41303 5.17762 7937 ft 97 kts 346°
2026-04-25 07:54 60.41972 5.17540 8355 ft 97 kts 345°
2026-04-25 07:55 60.42639 5.17308 8773 ft 97 kts 345°
2026-04-25 07:55 60.43308 5.17076 9204 ft 97 kts 345°
2026-04-25 07:55 60.43973 5.16850 9633 ft 97 kts 343°
2026-04-25 07:55 60.44642 5.16623 10025 ft 97 kts 343°
2026-04-25 07:56 60.45307 5.16400 10400 ft 96 kts 343°
2026-04-25 07:56 60.45966 5.16181 10787 ft 95 kts 343°
2026-04-25 07:56 60.46617 5.15965 11173 ft 94 kts 342°
2026-04-25 07:56 60.47265 5.15746 11590 ft 94 kts 342°
2026-04-25 07:57 60.47908 5.15525 11976 ft 93 kts 341°
2026-04-25 07:57 60.48544 5.15305 12365 ft 91 kts 339°
2026-04-25 07:57 60.49044 5.14622 12786 ft 90 kts 310°
2026-04-25 07:57 60.49164 5.13290 13188 ft 106 kts 284°
2026-04-25 07:58 60.49043 5.11784 13605 ft 109 kts 281°
2026-04-25 07:58 60.48904 5.10272 13999 ft 109 kts 281°
2026-04-25 07:58 60.48763 5.08775 14379 ft 107 kts 282°
2026-04-25 07:58 60.48630 5.07308 14745 ft 105 kts 283°
2026-04-25 07:59 60.48508 5.05815 14946 ft 115 kts 283°
2026-04-25 07:59 60.48393 5.04070 14969 ft 134 kts 281°
2026-04-25 07:59 60.48248 5.02110 14980 ft 150 kts 279°
2026-04-25 07:59 60.47937 4.99939 14978 ft 177 kts 262°
2026-04-25 08:00 60.47029 4.97893 14979 ft 220 kts 231°
2026-04-25 08:00 60.45406 4.97073 14980 ft 263 kts 189°
2026-04-25 08:00 60.43551 4.97448 14993 ft 270 kts 183°
2026-04-25 08:00 60.41675 4.97920 14984 ft 273 kts 182°
2026-04-25 08:01 60.39782 4.98381 14984 ft 274 kts 183°
2026-04-25 08:01 60.37884 4.98818 14990 ft 275 kts 184°
2026-04-25 08:01 60.35977 4.99241 14992 ft 276 kts 184°
2026-04-25 08:01 60.34062 4.99654 14988 ft 276 kts 184°
2026-04-25 08:02 60.32149 5.00058 14989 ft 276 kts 184°
2026-04-25 08:02 60.30236 5.00460 14988 ft 276 kts 184°
2026-04-25 08:02 60.28349 5.00876 14988 ft 277 kts 183°
2026-04-25 08:02 60.26404 5.01450 14987 ft 280 kts 179°
2026-04-25 08:03 60.24516 5.02177 14996 ft 280 kts 177°
2026-04-25 08:03 60.22605 5.02953 14995 ft 280 kts 177°
2026-04-25 08:03 60.20695 5.03728 14997 ft 280 kts 178°
2026-04-25 08:03 60.18755 5.04505 15004 ft 280 kts 178°
2026-04-25 08:04 60.16837 5.05246 14991 ft 280 kts 179°
2026-04-25 08:04 60.14915 5.05846 14987 ft 277 kts 182°
2026-04-25 08:04 60.13007 5.06276 14994 ft 276 kts 185°
2026-04-25 08:04 60.11098 5.06664 14985 ft 276 kts 185°
2026-04-25 08:05 60.09186 5.07053 14985 ft 276 kts 185°
2026-04-25 08:05 60.07279 5.07449 14983 ft 276 kts 185°
2026-04-25 08:05 60.05365 5.07851 14984 ft 276 kts 185°
2026-04-25 08:05 60.03480 5.08248 14980 ft 276 kts 185°
2026-04-25 08:06 60.01569 5.08652 14983 ft 276 kts 185°
2026-04-25 08:06 59.99656 5.09057 14986 ft 276 kts 185°
2026-04-25 08:06 59.97747 5.09461 14981 ft 276 kts 185°
2026-04-25 08:06 59.95837 5.09864 14983 ft 276 kts 185°
2026-04-25 08:07 59.93927 5.10268 14978 ft 276 kts 185°
2026-04-25 08:07 59.92017 5.10671 14980 ft 276 kts 185°
2026-04-25 08:07 59.90106 5.11073 14982 ft 276 kts 185°
2026-04-25 08:07 59.88195 5.11473 14987 ft 276 kts 185°
2026-04-25 08:08 59.86284 5.11876 14984 ft 277 kts 185°
2026-04-25 08:08 59.84367 5.12278 14984 ft 277 kts 185°
2026-04-25 08:08 59.82455 5.12678 14984 ft 276 kts 185°
2026-04-25 08:08 59.80542 5.13079 14988 ft 276 kts 185°
2026-04-25 08:09 59.78631 5.13480 14987 ft 276 kts 185°
2026-04-25 08:09 59.76719 5.13827 14989 ft 275 kts 187°
2026-04-25 08:09 59.74813 5.14125 14987 ft 275 kts 187°
2026-04-25 08:09 59.72906 5.14422 14988 ft 274 kts 187°
2026-04-25 08:10 59.71004 5.14723 14989 ft 274 kts 187°
2026-04-25 08:10 59.69101 5.15029 14987 ft 274 kts 187°
2026-04-25 08:10 59.67191 5.15337 14991 ft 274 kts 187°
2026-04-25 08:10 59.65288 5.15645 14992 ft 275 kts 187°
2026-04-25 08:11 59.63386 5.15956 14988 ft 275 kts 187°
2026-04-25 08:11 59.61478 5.16271 14988 ft 274 kts 187°
2026-04-25 08:11 59.59575 5.16586 14989 ft 274 kts 187°
2026-04-25 08:11 59.57672 5.16901 14990 ft 274 kts 187°
2026-04-25 08:12 59.55773 5.17214 14990 ft 274 kts 187°
2026-04-25 08:12 59.53874 5.17526 14988 ft 274 kts 187°
2026-04-25 08:12 59.51971 5.17839 14989 ft 274 kts 187°
2026-04-25 08:12 59.50076 5.18150 14988 ft 273 kts 187°
2026-04-25 08:13 59.48183 5.18461 14987 ft 273 kts 187°
2026-04-25 08:13 59.46290 5.18769 14992 ft 273 kts 187°
2026-04-25 08:13 59.44417 5.19067 14989 ft 273 kts 187°
2026-04-25 08:14 59.40614 5.19702 14987 ft 272 kts 187°
2026-04-25 08:14 59.38754 5.19964 14991 ft 269 kts 191°
2026-04-25 08:14 59.36888 5.20005 14850 ft 268 kts 193°
2026-04-25 08:14 59.35020 5.19996 14613 ft 267 kts 193°
2026-04-25 08:15 59.33167 5.20003 14396 ft 266 kts 192°
2026-04-25 08:15 59.31321 5.20028 14178 ft 265 kts 192°
2026-04-25 08:15 59.29487 5.20064 13968 ft 263 kts 191°
2026-04-25 08:15 59.27659 5.20107 13762 ft 262 kts 191°
2026-04-25 08:16 59.25839 5.20153 13535 ft 261 kts 191°
2026-04-25 08:16 59.24032 5.20199 13316 ft 259 kts 191°
2026-04-25 08:16 59.22233 5.20246 13113 ft 258 kts 191°
2026-04-25 08:16 59.20442 5.20292 12904 ft 256 kts 191°
2026-04-25 08:17 59.18669 5.20340 12712 ft 255 kts 191°
2026-04-25 08:17 59.16900 5.20387 12512 ft 253 kts 191°
2026-04-25 08:17 59.15137 5.20432 12315 ft 252 kts 191°
2026-04-25 08:17 59.13386 5.20476 12114 ft 251 kts 191°
2026-04-25 08:18 59.11641 5.20521 11918 ft 250 kts 190°
2026-04-25 08:18 59.09911 5.20566 11725 ft 249 kts 190°
2026-04-25 08:18 59.08185 5.20611 11539 ft 248 kts 190°
2026-04-25 08:18 59.06462 5.20656 11349 ft 247 kts 190°
2026-04-25 08:19 59.04748 5.20700 11163 ft 246 kts 190°
2026-04-25 08:19 59.03043 5.20745 10984 ft 244 kts 190°
2026-04-25 08:19 59.01347 5.20789 10809 ft 243 kts 189°
2026-04-25 08:19 58.99656 5.20832 10637 ft 242 kts 189°
2026-04-25 08:20 58.97975 5.20875 10465 ft 241 kts 189°
2026-04-25 08:20 58.96320 5.20918 10292 ft 241 kts 189°
2026-04-25 08:20 58.94649 5.20961 10128 ft 240 kts 189°
2026-04-25 08:20 58.92986 5.21005 10028 ft 236 kts 189°
2026-04-25 08:21 58.91367 5.21055 10009 ft 230 kts 189°
2026-04-25 08:21 58.89780 5.21100 9997 ft 227 kts 189°
2026-04-25 08:21 58.88210 5.21140 9996 ft 224 kts 190°
2026-04-25 08:21 58.86658 5.21178 9995 ft 222 kts 190°
2026-04-25 08:22 58.85114 5.21216 9994 ft 221 kts 190°
2026-04-25 08:22 58.83576 5.21253 9997 ft 221 kts 190°
2026-04-25 08:22 58.82043 5.21290 9997 ft 220 kts 190°
2026-04-25 08:22 58.80500 5.21325 9908 ft 225 kts 190°
2026-04-25 08:23 58.78905 5.21352 9688 ft 232 kts 189°
2026-04-25 08:23 58.77278 5.21389 9466 ft 235 kts 189°
2026-04-25 08:23 58.75652 5.21275 9250 ft 232 kts 196°
2026-04-25 08:23 58.74069 5.20829 9034 ft 230 kts 200°
2026-04-25 08:24 58.72486 5.20351 8819 ft 230 kts 199°
2026-04-25 08:24 58.70899 5.19922 8605 ft 233 kts 193°
2026-04-25 08:24 58.69258 5.20150 8389 ft 242 kts 172°
2026-04-25 08:24 58.67652 5.20923 8182 ft 240 kts 174°
2026-04-25 08:25 58.66012 5.21506 7978 ft 239 kts 176°
2026-04-25 08:25 58.64411 5.22364 7770 ft 242 kts 160°
2026-04-25 08:25 58.62929 5.23927 7563 ft 243 kts 150°
2026-04-25 08:25 58.61482 5.25595 7357 ft 242 kts 150°
2026-04-25 08:26 58.60082 5.27367 7156 ft 241 kts 141°
2026-04-25 08:26 58.58903 5.29629 6954 ft 238 kts 124°
2026-04-25 08:26 58.57904 5.32142 6760 ft 237 kts 126°
2026-04-25 08:26 58.56851 5.34597 6561 ft 237 kts 127°
2026-04-25 08:27 58.55982 5.37211 6350 ft 230 kts 106°
2026-04-25 08:27 58.55564 5.40102 6139 ft 221 kts 90°
2026-04-25 08:27 58.55607 5.42946 5926 ft 207 kts 68°
2026-04-25 08:27 58.56106 5.45429 5712 ft 193 kts 49°
2026-04-25 08:28 58.56925 5.47346 5507 ft 181 kts 31°
2026-04-25 08:28 58.57944 5.48643 5298 ft 172 kts 17°
2026-04-25 08:28 58.59058 5.49309 5089 ft 165 kts
2026-04-25 08:28 58.60187 5.49527 4884 ft 163 kts 360°
2026-04-25 08:29 58.61312 5.49761 4674 ft 163 kts
2026-04-25 08:29 58.62057 5.49920 4531 ft 162 kts
2026-04-25 08:29 58.63176 5.50155 4318 ft 161 kts
2026-04-25 08:29 58.64292 5.50384 4105 ft 161 kts
2026-04-25 08:30 58.65772 5.50686 3820 ft 161 kts
2026-04-25 08:30 58.66526 5.50838 3676 ft 161 kts
2026-04-25 08:30 58.67622 5.51061 3472 ft 160 kts
2026-04-25 08:30 58.68727 5.51292 3261 ft 160 kts
2026-04-25 08:31 58.69787 5.51924 3125 ft 162 kts 19°
2026-04-25 08:31 58.70689 5.53217 2997 ft 164 kts 36°
2026-04-25 08:31 58.71341 5.55067 2873 ft 172 kts 55°
2026-04-25 08:31 58.71761 5.57243 2735 ft 173 kts 59°
2026-04-25 08:32 58.72179 5.59359 2766 ft 166 kts 57°
2026-04-25 08:32 58.72593 5.61396 2775 ft 160 kts 55°
2026-04-25 08:32 58.73200 5.63036 2782 ft 144 kts 30°
2026-04-25 08:32 58.74033 5.63931 2736 ft 134 kts
2026-04-25 08:33 58.74950 5.64164 2527 ft 131 kts 359°
2026-04-25 08:33 58.75803 5.64238 2414 ft 113 kts 353°
2026-04-25 08:33 58.76557 5.64179 2215 ft 103 kts 351°
2026-04-25 08:33 58.77241 5.64115 2068 ft 93 kts 352°
2026-04-25 08:34 58.77858 5.64080 1978 ft 87 kts 352°
2026-04-25 08:34 58.78466 5.64061 1839 ft 87 kts 352°
2026-04-25 08:34 58.79067 5.64049 1718 ft 87 kts 352°
2026-04-25 08:34 58.79666 5.64029 1571 ft 84 kts 350°
2026-04-25 08:35 58.80232 5.64014 1502 ft 80 kts 350°
2026-04-25 08:35 58.80791 5.63994 1357 ft 78 kts 349°
2026-04-25 08:35 58.81302 5.63985 1240 ft 68 kts 349°
2026-04-25 08:35 58.81773 5.63972 1215 ft 70 kts 349°
2026-04-25 08:36 58.82300 5.63940 1043 ft 81 kts 350°
2026-04-25 08:36 58.82871 5.63912 906 ft 80 kts 350°
2026-04-25 08:36 58.83413 5.63889 844 ft 78 kts 351°
2026-04-25 08:36 58.83977 5.63875 705 ft 86 kts 353°
2026-04-25 08:37 58.84591 5.63862 508 ft 89 kts 353°
2026-04-25 08:37 58.85171 5.63879 450 ft 77 kts 351°
2026-04-25 08:37 58.85693 5.63881 364 ft 75 kts 353°
2026-04-25 08:37 58.86216 5.63865 336 ft 75 kts 351°
2026-04-25 08:38 58.86751 5.63856 267 ft 79 kts 350°
2026-04-25 08:38 58.87310 5.63845 187 ft 80 kts 351°
2026-04-25 08:38 58.87845 5.63798 153 ft 75 kts 349°
2026-04-25 08:38 58.88365 5.63764 50 ft 72 kts 348°
2026-04-25 08:39 58.88781 5.63722 17 ft 49 kts 357°
2026-04-25 08:39 58.89070 5.63722 15 ft 35 kts
2026-04-25 08:39 58.89257 5.63734 16 ft 19 kts 356°
2026-04-25 08:39 58.89338 5.63613 14 ft 13 kts 283°
2026-04-25 08:40 58.89344 5.63491 13 ft 0 kts 269°
2026-04-25 08:40 58.89344 5.63483 13 ft 4 kts 269°
2026-04-25 08:40 58.89342 5.63347 13 ft 14 kts 270°
2026-04-25 08:40 58.89331 5.63265 13 ft 0 kts 189°